HULIANWANG DIGUI-122

Last updated on Fri Dec 19 2025 00:02:10 GMT+0000 (Coordinated Universal Time)

1 67062U 25295D 25352.59053472 .00000174 00000+0 13957-3 0 9995 2 67062 50.0054 347.5334 0013160 273.8482 86.0927 14.25754659 955
UTC large
Height (km)
Speed (km/s)
/
Latitude / Longitude
Inclination (degrees)
Orbital Period (minutes)
Azimuth
Elevation
Range (km)
Doppler Factor

Next 0 passes for location: London (51.5072 / 0.1276)

Sorry there are no passes over London.